Location: Unspecified
(0.0000°N, 0.0000°E)
Time: 19:00:04
(UTC+00:00)

Vanguard 2 Rocket - Pass Details

Date: 18 January 2020
Orbit: 554 x 3327 km, 32.9° (Epoch: 20 February)

Event Time Altitude Azimuth Distance (km) Brightness Sun altitude
Rises 14:33:42 0° 304° (NW) 6,413 11.4 49.4°
Reaches altitude 10° 14:37:29 10° 304° (NW) 5,659 11.3 48.6°
Maximum altitude 14:56:35 85° 217° (SW) 3,334 10.7 44.5°
Drops below altitude 10° 15:15:52 10° 128° (SE) 5,692 10.8 40.2°
Sets 15:19:42 0° 127° (SE) 6,449 11.0 39.4°
